Humberside, United Kingdom

1:27 AM BST on April 24, 2017 (GMT +0100)
Scampton

Weather History for EGXP - May, 2013

Change the Weather History Date:

Sunday, May 26, 2013

  Actual Average Record
Temperature  
Mean Temperature 52 °F -  
Max Temperature 65 °F 63 °F - ()
Min Temperature 39 °F 49 °F - ()
Degree Days  
Heating Degree Days 13    
Growing Degree Days 2 (Base 50)    
Moisture  
Dew Point 39 °F    
Average Humidity 57    
Maximum Humidity 81    
Minimum Humidity 26    
Precipitation  
Precipitation 0.00 in - - ()
Sea Level Pressure  
Sea Level Pressure 30.03 in    
Wind  
Wind Speed 7 mph ()    
Max Wind Speed 13 mph    
Max Gust Speed -    
Visibility 7.3 miles    
Events      
T = Trace of Precipitation, MM = Missing Value Source: Averaged Metar Reports

Daily Weather History Graph

Daily Weather History Graph

Search for Another Location

Airport or City:

Trip Planner

Search our weather history database for the weather conditions in past years. The results will help you decide how hot, cold, wet, or windy it might be!

Date:

Astronomy

May. 26, 2013 Rise Set
Actual Time 4:47 AM BST 9:12 PM BST
Civil Twilight 3:59 AM BST 10:00 PM BST
Nautical Twilight 2:46 AM BST 11:13 PM BST
Astronomical Twilight 1:31 AM BST 12:26 AM BST
Moon 10:41 PM BST (5/26) 6:02 AM BST (5/26)
Length of Visible Light 18h 00m
Length of Day
16h 25m
Full, 97% of the Moon is Illuminated
May 26
Full
May 31
Last Quarter
Jun 8
New
Jun 16
First Quarter
Jun 23
Full

Hourly Weather History & Observations

Time (BST) Temp. Windchill Dew Point Humidity Pressure Visibility Wind Dir Wind Speed Gust Speed Precip Events Conditions
12:50 AM 44 °F - 39 °F 75% 30.14 in 18 mi WNW 5.8 mph - -   Scattered Clouds
12:50 AM 44.6 °F 41.4 °F 39.2 °F 81% 30.12 in 6.2 mi WNW 5.8 mph - N/A   Partly Cloudy
1:50 AM 42.8 °F 37.5 °F 35.6 °F 76% 30.09 in 6.2 mi WNW 9.2 mph - N/A   Unknown
2:50 AM 42.8 °F 37.0 °F 35.6 °F 76% 30.09 in 6.2 mi WNW 10.4 mph - N/A   Unknown
3:50 AM 42 °F - 34 °F 64% 30.11 in 28 mi NW 9.2 mph - -  
3:50 AM 42.8 °F 37.5 °F 33.8 °F 70% 30.09 in 6.2 mi NW 9.2 mph - N/A   Unknown
4:50 AM 39.2 °F 33.6 °F 33.8 °F 81% 30.09 in 6.2 mi WNW 8.1 mph - N/A   Unknown
5:50 AM 41.0 °F 33.9 °F 33.8 °F 76% 30.09 in 6.2 mi WNW 12.7 mph - N/A   Unknown
6:50 AM 44 °F - 37 °F 68% 30.10 in 28 mi West 10.4 mph - -  
6:50 AM 44.6 °F 39.2 °F 37.4 °F 76% 30.09 in 6.2 mi West 10.4 mph - N/A   Unknown
7:50 AM 50.0 °F - 37.4 °F 62% 30.09 in 6.2 mi NW 11.5 mph - N/A   Unknown
8:50 AM 51.8 °F - 39.2 °F 62% 30.09 in 6.2 mi NW 9.2 mph - N/A   Unknown
9:50 AM 53 °F - 38 °F 47% 30.09 in 28 mi WNW 10.4 mph - -  
9:50 AM 53.6 °F - 39.2 °F 58% 30.09 in 6.2 mi WNW 10.4 mph - N/A   Unknown
10:50 AM 57.2 °F - 41.0 °F 55% 30.06 in 6.2 mi NW 9.2 mph - N/A   Unknown
11:50 AM 59.0 °F - 41.0 °F 51% 30.06 in 6.2 mi WNW 8.1 mph - N/A   Unknown
12:50 PM 60 °F - 37 °F 30% 30.06 in 34 mi West 6.9 mph - -  
12:50 PM 59.0 °F - 37.4 °F 45% 30.04 in 6.2 mi West 6.9 mph - N/A   Unknown
1:50 PM 62.6 °F - 39.2 °F 42% 30.04 in 6.2 mi WNW 6.9 mph - N/A   Unknown
2:50 PM 62.6 °F - 37.4 °F 39% 30.01 in 6.2 mi West 5.8 mph - N/A   Unknown
3:50 PM 63 °F - 37 °F 26% 30.01 in 28 mi NNW 4.6 mph - -  
3:50 PM 62.6 °F - 37.4 °F 39% 30.01 in - NNW 4.6 mph - N/A   Clear
4:50 PM 64.4 °F - 37.4 °F 37% 29.98 in - SW 5.8 mph - N/A   Clear
5:50 PM 64.4 °F - 39.2 °F 40% 29.95 in - NW 8.1 mph - N/A   Clear
6:50 PM 64 °F - 42 °F 33% 29.95 in 25 mi West 4.6 mph - -   Scattered Clouds
6:50 PM 64.4 °F - 42.8 °F 45% 29.95 in - West 4.6 mph - N/A   Clear
7:50 PM 60.8 °F - 42.8 °F 52% 29.92 in - WSW 3.5 mph - N/A   Clear
8:50 PM 55.4 °F - 46.4 °F 72% 29.92 in 6.2 mi WSW 5.8 mph - N/A   Mostly Cloudy
9:50 PM 54 °F - 42 °F 54% 29.93 in 17 mi West 6.9 mph - -   Scattered Clouds
9:50 PM 55.4 °F - 42.8 °F 63% 29.92 in 6.2 mi West 6.9 mph - N/A   Partly Cloudy
10:50 PM 53.6 °F - 41.0 °F 62% 29.89 in 6.2 mi SW 2.3 mph - N/A   Mostly Cloudy
11:50 PM 48.2 °F - 39.2 °F 71% 29.86 in 6.2 mi SSE 3.5 mph - N/A   Unknown